Snow/Ice From: 16-12-2017 16:00 Until: 17-12-2017 16:00 warning for: Snow/Ice Level: Yellow info button

Although rather usual in this region, locally or potentially dangerous phenomena are expected. (such as local winds, summer thunderstorms, rising streams or high waves) Be aware and pay attention to the latest weather updates, especially if you carry out activities exposed to weather or close to a stream or shoreline. 


Meteo18 Weather Cam more information Meteo18 Weather Cam


Thunder radar more information blitzortung!


warning for Snow/Ice more information rain snow radar


Visit our other weather sites:

Template documentation
and downloads

And another site



Weather Underground History page Text

Daily Summary for January 25, 2017 Units:  Metric    English   Both
« Previous Day
Next Day »
Daily Weekly Monthly Yearly Custom
  High: Low: Average:
Temperature: -1.4 °C -5.1 °C -2.9 °C
Dew Point: -2.8 °C -7.1 °C -5.3 °C
Humidity: 91 % 78 % 84 %
Wind Speed: 22.5 km/h 0.0 km/h 6.2 km/h
Wind Gust: 24.1 km/h - -
Wind:- - ENE
Pressure: 1028.0 hPa 1024.9 hPa -
Precipitation: 0.0 mm    
Historical Graphs
 
 
Tabular Data for January 25, 2017
Time Temperature Dew Point Pressure Wind Wind Speed Wind Gust Humidity Rainfall Rate (Hourly)
00:02 -1.4 °C -2.8 °C 1028.0 hPa NE 8.0 km/h 24.1 km/h 90 % 0.0 mm
00:12 -1.4 °C -3.0 °C 1027.7 hPa NNE 6.4 km/h 24.1 km/h 89 % 0.0 mm
00:17 -1.5 °C -3.1 °C 1027.7 hPa NNE 9.7 km/h 22.5 km/h 89 % 0.0 mm
00:22 -1.5 °C -2.9 °C 1027.7 hPa NE 8.0 km/h 19.3 km/h 90 % 0.0 mm
00:27 -1.6 °C -3.0 °C 1027.7 hPa NNE 9.7 km/h 19.3 km/h 90 % 0.0 mm
00:32 -1.6 °C -3.0 °C 1027.7 hPa NNE 3.2 km/h 17.7 km/h 90 % 0.0 mm
00:37 -1.6 °C -3.0 °C 1027.7 hPa NE 9.7 km/h 17.7 km/h 90 % 0.0 mm
00:42 -1.6 °C -3.0 °C 1027.7 hPa NNW 8.0 km/h 12.9 km/h 90 % 0.0 mm
00:47 -1.6 °C -2.9 °C 1027.7 hPa NE 6.4 km/h 12.9 km/h 91 % 0.0 mm
00:52 -1.6 °C -2.9 °C 1027.7 hPa North 9.7 km/h 14.5 km/h 91 % 0.0 mm
00:57 -1.6 °C -2.9 °C 1027.7 hPa NNE 1.6 km/h 12.9 km/h 91 % 0.0 mm
01:02 -1.6 °C -2.9 °C 1027.7 hPa NNE 6.4 km/h 12.9 km/h 91 % 0.0 mm
01:12 -1.7 °C -3.1 °C 1027.3 hPa NE 1.6 km/h 14.5 km/h 90 % 0.0 mm
01:17 -1.6 °C -3.0 °C 1027.3 hPa Calm   14.5 km/h 90 % 0.0 mm
01:22 -1.7 °C -3.0 °C 1027.3 hPa NNE 1.6 km/h 17.7 km/h 91 % 0.0 mm
01:27 -1.7 °C -3.0 °C 1027.3 hPa NNW 1.6 km/h 17.7 km/h 91 % 0.0 mm
01:32 -1.7 °C -3.0 °C 1027.3 hPa North 1.6 km/h 8.0 km/h 91 % 0.0 mm
01:37 -1.7 °C -3.0 °C 1027.3 hPa NNW 4.8 km/h 6.4 km/h 91 % 0.0 mm
01:42 -1.7 °C -3.0 °C 1027.3 hPa NNE 4.8 km/h 9.7 km/h 91 % 0.0 mm
01:47 -1.7 °C -3.0 °C 1027.3 hPa North 4.8 km/h 9.7 km/h 91 % 0.0 mm
01:52 -1.7 °C -3.0 °C 1027.0 hPa NNW 4.8 km/h 9.7 km/h 91 % 0.0 mm
01:57 -1.7 °C -3.0 °C 1027.3 hPa NNE 3.2 km/h 8.0 km/h 91 % 0.0 mm
02:02 -1.7 °C -3.0 °C 1027.3 hPa NE 12.9 km/h 12.9 km/h 91 % 0.0 mm
02:07 -1.7 °C -3.0 °C 1027.3 hPa NE 1.6 km/h 12.9 km/h 91 % 0.0 mm
02:12 -1.7 °C -3.1 °C 1027.0 hPa NE 9.7 km/h 14.5 km/h 90 % 0.0 mm
02:17 -1.7 °C -3.1 °C 1027.0 hPa NNE 3.2 km/h 14.5 km/h 90 % 0.0 mm
02:22 -1.7 °C -3.1 °C 1027.0 hPa NE 4.8 km/h 12.9 km/h 90 % 0.0 mm
02:27 -1.7 °C -3.1 °C 1027.0 hPa NNE 1.6 km/h 12.9 km/h 90 % 0.0 mm
02:32 -1.7 °C -3.1 °C 1027.0 hPa NE 6.4 km/h 9.7 km/h 90 % 0.0 mm
02:37 -1.6 °C -3.0 °C 1027.0 hPa NNE 3.2 km/h 12.9 km/h 90 % 0.0 mm
02:42 -1.7 °C -3.1 °C 1027.0 hPa NE 8.0 km/h 12.9 km/h 90 % 0.0 mm
02:47 -1.7 °C -3.1 °C 1027.0 hPa NE 4.8 km/h 12.9 km/h 90 % 0.0 mm
02:52 -1.7 °C -3.3 °C 1027.0 hPa East 3.2 km/h 11.3 km/h 89 % 0.0 mm
02:57 -1.7 °C -3.3 °C 1027.0 hPa NE 1.6 km/h 12.9 km/h 89 % 0.0 mm
03:02 -1.6 °C -3.2 °C 1027.0 hPa NNE 6.4 km/h 12.9 km/h 89 % 0.0 mm
03:07 -1.6 °C -3.2 °C 1027.0 hPa NE 4.8 km/h 12.9 km/h 89 % 0.0 mm
03:12 -1.6 °C -3.2 °C 1027.0 hPa NE 8.0 km/h 9.7 km/h 89 % 0.0 mm
03:17 -1.6 °C -3.2 °C 1027.0 hPa NNE 4.8 km/h 16.1 km/h 89 % 0.0 mm
03:22 -1.6 °C -3.2 °C 1027.0 hPa NE 11.3 km/h 16.1 km/h 89 % 0.0 mm
03:27 -1.6 °C -3.2 °C 1027.0 hPa North 6.4 km/h 16.1 km/h 89 % 0.0 mm
03:32 -1.6 °C -3.2 °C 1027.0 hPa NE 6.4 km/h 16.1 km/h 89 % 0.0 mm
03:37 -1.6 °C -3.2 °C 1027.3 hPa NE 6.4 km/h 16.1 km/h 89 % 0.0 mm
03:42 -1.6 °C -3.0 °C 1027.0 hPa NNE 6.4 km/h 16.1 km/h 90 % 0.0 mm
03:47 -1.6 °C -3.0 °C 1027.0 hPa NE 9.7 km/h 12.9 km/h 90 % 0.0 mm
03:52 -1.6 °C -3.0 °C 1027.0 hPa Calm   16.1 km/h 90 % 0.0 mm
03:57 -1.6 °C -3.0 °C 1027.0 hPa North 9.7 km/h 16.1 km/h 90 % 0.0 mm
04:02 -1.7 °C -3.1 °C 1027.0 hPa NNW 1.6 km/h 16.1 km/h 90 % 0.0 mm
04:07 -1.7 °C -3.0 °C 1027.0 hPa NW 3.2 km/h 14.5 km/h 91 % 0.0 mm
04:12 -1.7 °C -3.0 °C 1027.0 hPa North 1.6 km/h 14.5 km/h 91 % 0.0 mm
04:17 -1.7 °C -3.0 °C 1027.0 hPa NNE 6.4 km/h 12.9 km/h 91 % 0.0 mm
04:22 -1.7 °C -3.0 °C 1027.0 hPa NNE 12.9 km/h 12.9 km/h 91 % 0.0 mm
04:27 -1.7 °C -3.1 °C 1027.0 hPa NE 8.0 km/h 14.5 km/h 90 % 0.0 mm
04:32 -1.7 °C -3.1 °C 1027.0 hPa NW 6.4 km/h 16.1 km/h 90 % 0.0 mm
04:37 -1.7 °C -3.1 °C 1027.0 hPa NNW 3.2 km/h 16.1 km/h 90 % 0.0 mm
04:42 -1.6 °C -3.0 °C 1027.0 hPa NE 14.5 km/h 16.1 km/h 90 % 0.0 mm
04:47 -1.6 °C -3.3 °C 1027.0 hPa NNE 16.1 km/h 16.1 km/h 88 % 0.0 mm
04:52 -1.5 °C -3.7 °C 1027.0 hPa North 12.9 km/h 19.3 km/h 85 % 0.0 mm
04:57 -1.5 °C -3.5 °C 1027.0 hPa NNE 8.0 km/h 24.1 km/h 86 % 0.0 mm
05:02 -1.5 °C -3.5 °C 1027.0 hPa NNE 9.7 km/h 24.1 km/h 86 % 0.0 mm
05:12 -1.5 °C -3.7 °C 1027.0 hPa North 4.8 km/h 24.1 km/h 85 % 0.0 mm
05:17 -1.5 °C -3.7 °C 1026.6 hPa NE 16.1 km/h 19.3 km/h 85 % 0.0 mm
05:22 -1.6 °C -3.8 °C 1027.0 hPa NE 8.0 km/h 19.3 km/h 85 % 0.0 mm
05:27 -1.6 °C -3.6 °C 1027.0 hPa ENE 17.7 km/h 19.3 km/h 86 % 0.0 mm
05:32 -1.6 °C -3.6 °C 1027.0 hPa NE 12.9 km/h 19.3 km/h 86 % 0.0 mm
05:37 -1.6 °C -3.6 °C 1027.0 hPa NE 8.0 km/h 22.5 km/h 86 % 0.0 mm
05:42 -1.6 °C -3.6 °C 1027.0 hPa NE 11.3 km/h 22.5 km/h 86 % 0.0 mm
05:47 -1.7 °C -3.9 °C 1027.0 hPa NE 9.7 km/h 19.3 km/h 85 % 0.0 mm
05:52 -1.7 °C -3.9 °C 1027.0 hPa NNE 11.3 km/h 19.3 km/h 85 % 0.0 mm
05:57 -1.7 °C -3.9 °C 1027.0 hPa NW 1.6 km/h 17.7 km/h 85 % 0.0 mm
06:02 -1.7 °C -4.0 °C 1027.0 hPa NE 6.4 km/h 17.7 km/h 84 % 0.0 mm
06:07 -1.7 °C -4.0 °C 1027.0 hPa NE 4.8 km/h 19.3 km/h 84 % 0.0 mm
06:12 -1.8 °C -4.1 °C 1027.0 hPa NE 6.4 km/h 19.3 km/h 84 % 0.0 mm
06:17 -1.8 °C -4.3 °C 1027.0 hPa NE 11.3 km/h 19.3 km/h 83 % 0.0 mm
06:22 -1.8 °C -4.5 °C 1026.6 hPa NNE 12.9 km/h 19.3 km/h 82 % 0.0 mm
06:27 -1.8 °C -4.3 °C 1026.6 hPa NE 11.3 km/h 20.9 km/h 83 % 0.0 mm
06:32 -1.8 °C -4.3 °C 1026.6 hPa NNE 6.4 km/h 20.9 km/h 83 % 0.0 mm
06:42 -1.9 °C -4.4 °C 1026.6 hPa ENE 4.8 km/h 20.9 km/h 83 % 0.0 mm
06:47 -1.9 °C -4.4 °C 1026.6 hPa East 9.7 km/h 20.9 km/h 83 % 0.0 mm
06:52 -1.9 °C -4.6 °C 1026.6 hPa NE 6.4 km/h 20.9 km/h 82 % 0.0 mm
07:02 -2.1 °C -4.8 °C 1027.0 hPa ENE 12.9 km/h 16.1 km/h 82 % 0.0 mm
07:07 -2.1 °C -4.6 °C 1027.0 hPa NNE 9.7 km/h 16.1 km/h 83 % 0.0 mm
07:12 -2.1 °C -4.6 °C 1027.0 hPa NNE 8.0 km/h 16.1 km/h 83 % 0.0 mm
07:17 -2.1 °C -4.6 °C 1027.0 hPa NE 8.0 km/h 16.1 km/h 83 % 0.0 mm
07:22 -2.1 °C -4.6 °C 1027.0 hPa NNE 8.0 km/h 14.5 km/h 83 % 0.0 mm
07:32 -2.1 °C -4.4 °C 1026.6 hPa NNE 11.3 km/h 14.5 km/h 84 % 0.0 mm
07:42 -2.2 °C -4.4 °C 1026.6 hPa NE 11.3 km/h 14.5 km/h 85 % 0.0 mm
07:47 -2.2 °C -4.4 °C 1026.6 hPa NE 6.4 km/h 14.5 km/h 85 % 0.0 mm
07:52 -2.2 °C -4.4 °C 1026.6 hPa NE 8.0 km/h 16.1 km/h 85 % 0.0 mm
07:57 -2.2 °C -4.4 °C 1026.6 hPa NE 12.9 km/h 16.1 km/h 85 % 0.0 mm
08:02 -2.3 °C -4.5 °C 1026.6 hPa NE 9.7 km/h 16.1 km/h 85 % 0.0 mm
08:07 -2.3 °C -4.5 °C 1026.6 hPa NE 16.1 km/h 16.1 km/h 85 % 0.0 mm
08:12 -2.3 °C -4.5 °C 1026.6 hPa NNE 6.4 km/h 17.7 km/h 85 % 0.0 mm
08:17 -2.3 °C -4.3 °C 1026.6 hPa NE 12.9 km/h 17.7 km/h 86 % 0.0 mm
08:27 -2.4 °C -4.4 °C 1027.0 hPa NNE 4.8 km/h 20.9 km/h 86 % 0.0 mm
08:32 -2.5 °C -4.5 °C 1027.0 hPa NE 14.5 km/h 20.9 km/h 86 % 0.0 mm
08:37 -2.6 °C -4.5 °C 1027.0 hPa ENE 12.9 km/h 20.9 km/h 87 % 0.0 mm
08:42 -2.7 °C -4.7 °C 1027.0 hPa ENE 11.3 km/h 17.7 km/h 86 % 0.0 mm
08:52 -2.8 °C -4.8 °C 1027.0 hPa NE 8.0 km/h 19.3 km/h 86 % 0.0 mm
08:57 -3.0 °C -5.2 °C 1027.3 hPa NNE 19.3 km/h 19.3 km/h 85 % 0.0 mm
09:02 -3.2 °C -5.4 °C 1027.3 hPa NNE 12.9 km/h 24.1 km/h 85 % 0.0 mm
09:07 -3.4 °C -5.6 °C 1027.3 hPa NE 8.0 km/h 24.1 km/h 85 % 0.0 mm
09:12 -3.4 °C -5.6 °C 1027.3 hPa NNE 11.3 km/h 24.1 km/h 85 % 0.0 mm
09:17 -3.6 °C -5.9 °C 1027.3 hPa NE 17.7 km/h 24.1 km/h 84 % 0.0 mm
09:22 -3.7 °C -6.0 °C 1027.7 hPa ENE 17.7 km/h 22.5 km/h 84 % 0.0 mm
09:27 -3.8 °C -5.9 °C 1027.7 hPa NE 22.5 km/h 22.5 km/h 85 % 0.0 mm
09:32 -3.8 °C -6.1 °C 1027.7 hPa ENE 17.7 km/h 24.1 km/h 84 % 0.0 mm
09:37 -3.8 °C -6.1 °C 1027.7 hPa NE 6.4 km/h 24.1 km/h 84 % 0.0 mm
09:42 -3.8 °C -6.1 °C 1027.7 hPa NE 6.4 km/h 24.1 km/h 84 % 0.0 mm
09:52 -3.8 °C -6.1 °C 1027.7 hPa NW 4.8 km/h 19.3 km/h 84 % 0.0 mm
09:57 -3.8 °C -6.1 °C 1027.7 hPa NE 12.9 km/h 19.3 km/h 84 % 0.0 mm
10:02 -3.8 °C -6.1 °C 1027.7 hPa NE 12.9 km/h 24.1 km/h 84 % 0.0 mm
10:07 -3.8 °C -6.1 °C 1027.7 hPa NE 8.0 km/h 24.1 km/h 84 % 0.0 mm
10:12 -3.8 °C -6.1 °C 1027.7 hPa NE 22.5 km/h 24.1 km/h 84 % 0.0 mm
10:17 -3.8 °C -6.1 °C 1027.7 hPa NNE 19.3 km/h 24.1 km/h 84 % 0.0 mm
10:22 -3.8 °C -6.1 °C 1027.7 hPa NE 9.7 km/h 24.1 km/h 84 % 0.0 mm
10:27 -3.9 °C -6.4 °C 1027.7 hPa NE 12.9 km/h 24.1 km/h 83 % 0.0 mm
10:32 -3.9 °C -6.2 °C 1027.7 hPa NNE 6.4 km/h 24.1 km/h 84 % 0.0 mm
10:37 -3.8 °C -6.1 °C 1027.7 hPa NE 6.4 km/h 24.1 km/h 84 % 0.0 mm
10:42 -3.8 °C -6.1 °C 1027.7 hPa NE 14.5 km/h 24.1 km/h 84 % 0.0 mm
10:47 -3.8 °C -6.1 °C 1027.7 hPa NE 11.3 km/h 24.1 km/h 84 % 0.0 mm
10:52 -3.9 °C -6.2 °C 1027.7 hPa ENE 9.7 km/h 17.7 km/h 84 % 0.0 mm
10:57 -3.9 °C -6.2 °C 1027.7 hPa ENE 9.7 km/h 17.7 km/h 84 % 0.0 mm
11:02 -3.8 °C -6.3 °C 1027.7 hPa NE 11.3 km/h 20.9 km/h 83 % 0.0 mm
11:07 -3.8 °C -6.1 °C 1028.0 hPa NE 9.7 km/h 20.9 km/h 84 % 0.0 mm
11:12 -3.7 °C -6.0 °C 1027.7 hPa ENE 4.8 km/h 20.9 km/h 84 % 0.0 mm
11:17 -3.7 °C -6.2 °C 1028.0 hPa ENE 9.7 km/h 20.9 km/h 83 % 0.0 mm
11:22 -3.7 °C -6.2 °C 1027.7 hPa NNE 4.8 km/h 17.7 km/h 83 % 0.0 mm
11:32 -3.8 °C -6.3 °C 1027.7 hPa NE 3.2 km/h 17.7 km/h 83 % 0.0 mm
11:37 -3.7 °C -6.2 °C 1027.7 hPa NNE 12.9 km/h 17.7 km/h 83 % 0.0 mm
11:42 -3.7 °C -6.2 °C 1027.7 hPa NE 11.3 km/h 20.9 km/h 83 % 0.0 mm
11:47 -3.7 °C -6.2 °C 1027.7 hPa ENE 4.8 km/h 20.9 km/h 83 % 0.0 mm
11:52 -3.7 °C -6.3 °C 1027.7 hPa East 8.0 km/h 17.7 km/h 82 % 0.0 mm
11:57 -3.6 °C -6.2 °C 1027.7 hPa ENE 8.0 km/h 17.7 km/h 82 % 0.0 mm
12:02 -3.6 °C -6.2 °C 1027.7 hPa ENE 6.4 km/h 17.7 km/h 82 % 0.0 mm
12:07 -3.6 °C -6.2 °C 1027.7 hPa ENE 8.0 km/h 16.1 km/h 82 % 0.0 mm
12:12 -3.5 °C -6.1 °C 1027.7 hPa NNE 3.2 km/h 16.1 km/h 82 % 0.0 mm
12:17 -3.6 °C -6.4 °C 1027.3 hPa ENE 6.4 km/h 14.5 km/h 81 % 0.0 mm
12:22 -3.5 °C -6.3 °C 1027.3 hPa NNE 14.5 km/h 20.9 km/h 81 % 0.0 mm
12:27 -3.6 °C -6.4 °C 1027.3 hPa NE 6.4 km/h 20.9 km/h 81 % 0.0 mm
12:32 -3.4 °C -6.2 °C 1027.3 hPa NE 19.3 km/h 20.9 km/h 81 % 0.0 mm
12:37 -3.4 °C -6.2 °C 1027.3 hPa East 4.8 km/h 20.9 km/h 81 % 0.0 mm
12:42 -3.4 °C -6.2 °C 1027.0 hPa ENE 11.3 km/h 20.9 km/h 81 % 0.0 mm
12:47 -3.4 °C -6.2 °C 1027.0 hPa NE 4.8 km/h 20.9 km/h 81 % 0.0 mm
12:57 -3.4 °C -6.4 °C 1027.0 hPa ENE 4.8 km/h 17.7 km/h 80 % 0.0 mm
13:02 -3.4 °C -6.4 °C 1027.0 hPa ENE 3.2 km/h 16.1 km/h 80 % 0.0 mm
13:07 -3.4 °C -6.4 °C 1027.0 hPa ENE 9.7 km/h 16.1 km/h 80 % 0.0 mm
13:12 -3.4 °C -6.2 °C 1027.0 hPa East 3.2 km/h 16.1 km/h 81 % 0.0 mm
13:17 -3.4 °C -6.4 °C 1026.6 hPa NE 3.2 km/h 17.7 km/h 80 % 0.0 mm
13:22 -3.4 °C -6.4 °C 1026.6 hPa ENE 8.0 km/h 17.7 km/h 80 % 0.0 mm
13:32 -3.3 °C -6.3 °C 1026.6 hPa NE 9.7 km/h 16.1 km/h 80 % 0.0 mm
13:37 -3.3 °C -6.3 °C 1026.6 hPa ENE 9.7 km/h 16.1 km/h 80 % 0.0 mm
13:42 -3.3 °C -6.3 °C 1026.3 hPa ENE 4.8 km/h 12.9 km/h 80 % 0.0 mm
13:52 -3.2 °C -6.2 °C 1026.3 hPa East 4.8 km/h 12.9 km/h 80 % 0.0 mm
14:02 -3.2 °C -6.2 °C 1026.0 hPa ENE 1.6 km/h 16.1 km/h 80 % 0.0 mm
14:12 -3.2 °C -6.3 °C 1026.0 hPa ENE 9.7 km/h 16.1 km/h 79 % 0.0 mm
14:17 -3.2 °C -6.3 °C 1026.0 hPa ENE 1.6 km/h 12.9 km/h 79 % 0.0 mm
14:22 -3.2 °C -6.3 °C 1026.0 hPa East 4.8 km/h 14.5 km/h 79 % 0.0 mm
14:27 -3.2 °C -6.3 °C 1026.0 hPa ENE 9.7 km/h 14.5 km/h 79 % 0.0 mm
14:32 -3.2 °C -6.3 °C 1026.0 hPa East 6.4 km/h 14.5 km/h 79 % 0.0 mm
14:37 -3.1 °C -6.2 °C 1026.0 hPa East 3.2 km/h 12.9 km/h 79 % 0.0 mm
14:42 -3.1 °C -6.2 °C 1026.0 hPa ENE 3.2 km/h 14.5 km/h 79 % 0.0 mm
14:52 -3.1 °C -6.2 °C 1026.0 hPa ENE 3.2 km/h 14.5 km/h 79 % 0.0 mm
14:57 -3.1 °C -6.2 °C 1026.0 hPa ENE 4.8 km/h 14.5 km/h 79 % 0.0 mm
15:02 -3.1 °C -6.2 °C 1026.0 hPa NNE 9.7 km/h 11.3 km/h 79 % 0.0 mm
15:12 -3.2 °C -6.5 °C 1026.0 hPa ENE 9.7 km/h 12.9 km/h 78 % 0.0 mm
15:17 -3.1 °C -6.1 °C 1026.0 hPa ENE 3.2 km/h 14.5 km/h 80 % 0.0 mm
15:22 -3.1 °C -6.2 °C 1026.0 hPa East 4.8 km/h 14.5 km/h 79 % 0.0 mm
15:27 -3.1 °C -6.2 °C 1026.0 hPa NE 8.0 km/h 14.5 km/h 79 % 0.0 mm
15:32 -3.1 °C -6.2 °C 1025.6 hPa NE 1.6 km/h 16.1 km/h 79 % 0.0 mm
15:37 -3.1 °C -6.1 °C 1025.6 hPa ENE 4.8 km/h 16.1 km/h 80 % 0.0 mm
15:42 -3.1 °C -6.1 °C 1025.6 hPa NE 8.0 km/h 11.3 km/h 80 % 0.0 mm
15:47 -3.1 °C -6.1 °C 1025.6 hPa NNE 4.8 km/h 11.3 km/h 80 % 0.0 mm
15:52 -3.1 °C -5.9 °C 1025.6 hPa ENE 6.4 km/h 11.3 km/h 81 % 0.0 mm
15:57 -3.1 °C -6.1 °C 1025.6 hPa NE 3.2 km/h 11.3 km/h 80 % 0.0 mm
16:02 -3.1 °C -6.2 °C 1025.6 hPa ENE 11.3 km/h 12.9 km/h 79 % 0.0 mm
16:07 -3.1 °C -5.9 °C 1025.6 hPa NE 4.8 km/h 12.9 km/h 81 % 0.0 mm
16:12 -3.2 °C -6.0 °C 1025.6 hPa NE 11.3 km/h 12.9 km/h 81 % 0.0 mm
16:17 -3.2 °C -6.0 °C 1025.6 hPa ENE 3.2 km/h 12.9 km/h 81 % 0.0 mm
16:22 -3.2 °C -6.0 °C 1025.6 hPa NE 3.2 km/h 12.9 km/h 81 % 0.0 mm
16:27 -3.2 °C -5.8 °C 1025.6 hPa ENE 6.4 km/h 12.9 km/h 82 % 0.0 mm
16:32 -3.2 °C -6.2 °C 1025.6 hPa East 3.2 km/h 12.9 km/h 80 % 0.0 mm
16:37 -3.1 °C -5.9 °C 1025.6 hPa East 1.6 km/h 11.3 km/h 81 % 0.0 mm
16:42 -3.1 °C -5.7 °C 1025.6 hPa NE 3.2 km/h 11.3 km/h 82 % 0.0 mm
16:47 -3.2 °C -6.0 °C 1025.6 hPa East 1.6 km/h 6.4 km/h 81 % 0.0 mm
16:52 -3.1 °C -6.1 °C 1025.6 hPa ENE 6.4 km/h 8.0 km/h 80 % 0.0 mm
16:57 -3.2 °C -6.2 °C 1025.6 hPa NE 3.2 km/h 8.0 km/h 80 % 0.0 mm
17:02 -3.2 °C -6.2 °C 1025.6 hPa East 3.2 km/h 9.7 km/h 80 % 0.0 mm
17:07 -3.2 °C -6.3 °C 1025.6 hPa ESE 4.8 km/h 9.7 km/h 79 % 0.0 mm
17:12 -3.2 °C -6.3 °C 1025.6 hPa East 3.2 km/h 9.7 km/h 79 % 0.0 mm
17:17 -3.2 °C -6.5 °C 1025.6 hPa NE 1.6 km/h 9.7 km/h 78 % 0.0 mm
17:22 -3.2 °C -6.3 °C 1025.6 hPa ENE 3.2 km/h 9.7 km/h 79 % 0.0 mm
17:27 -3.2 °C -6.2 °C 1025.6 hPa ENE 1.6 km/h 9.7 km/h 80 % 0.0 mm
17:32 -3.2 °C -6.2 °C 1025.6 hPa East 1.6 km/h 9.7 km/h 80 % 0.0 mm
17:37 -3.2 °C -6.2 °C 1025.6 hPa ENE 4.8 km/h 8.0 km/h 80 % 0.0 mm
17:42 -3.2 °C -6.2 °C 1025.6 hPa ENE 4.8 km/h 6.4 km/h 80 % 0.0 mm
17:47 -3.2 °C -6.2 °C 1025.6 hPa ESE 1.6 km/h 9.7 km/h 80 % 0.0 mm
17:52 -3.2 °C -6.2 °C 1025.6 hPa East 3.2 km/h 9.7 km/h 80 % 0.0 mm
17:57 -3.3 °C -6.3 °C 1025.6 hPa ENE 3.2 km/h 9.7 km/h 80 % 0.0 mm
18:02 -3.3 °C -6.4 °C 1025.6 hPa East 6.4 km/h 8.0 km/h 79 % 0.0 mm
18:12 -3.3 °C -6.3 °C 1025.6 hPa East 1.6 km/h 9.7 km/h 80 % 0.0 mm
18:17 -3.3 °C -6.3 °C 1025.6 hPa East 1.6 km/h 9.7 km/h 80 % 0.0 mm
18:22 -3.3 °C -6.3 °C 1025.6 hPa ENE 4.8 km/h 8.0 km/h 80 % 0.0 mm
18:27 -3.4 °C -6.5 °C 1025.6 hPa East 3.2 km/h 8.0 km/h 79 % 0.0 mm
18:32 -3.4 °C -6.5 °C 1025.6 hPa East 3.2 km/h 6.4 km/h 79 % 0.0 mm
18:37 -3.4 °C -6.5 °C 1025.6 hPa ENE 8.0 km/h 8.0 km/h 79 % 0.0 mm
18:42 -3.4 °C -6.5 °C 1025.6 hPa Calm   12.9 km/h 79 % 0.0 mm
18:47 -3.4 °C -6.5 °C 1025.6 hPa ENE 1.6 km/h 12.9 km/h 79 % 0.0 mm
18:57 -3.4 °C -6.5 °C 1025.6 hPa East 4.8 km/h 16.1 km/h 79 % 0.0 mm
19:02 -3.4 °C -6.5 °C 1025.6 hPa East 3.2 km/h 11.3 km/h 79 % 0.0 mm
19:12 -3.5 °C -6.6 °C 1025.6 hPa ENE 3.2 km/h 9.7 km/h 79 % 0.0 mm
19:17 -3.5 °C -6.6 °C 1025.6 hPa ENE 4.8 km/h 9.7 km/h 79 % 0.0 mm
19:22 -3.5 °C -6.6 °C 1025.6 hPa NE 3.2 km/h 8.0 km/h 79 % 0.0 mm
19:27 -3.5 °C -6.6 °C 1025.6 hPa East 8.0 km/h 8.0 km/h 79 % 0.0 mm
19:32 -3.5 °C -6.6 °C 1025.6 hPa ENE 3.2 km/h 8.0 km/h 79 % 0.0 mm
19:37 -3.5 °C -6.6 °C 1025.6 hPa ENE 3.2 km/h 9.7 km/h 79 % 0.0 mm
19:42 -3.5 °C -6.4 °C 1025.6 hPa East 4.8 km/h 9.7 km/h 80 % 0.0 mm
19:47 -3.6 °C -6.7 °C 1025.6 hPa Calm   8.0 km/h 79 % 0.0 mm
19:52 -3.5 °C -6.4 °C 1025.6 hPa East 1.6 km/h 8.0 km/h 80 % 0.0 mm
19:57 -3.5 °C -6.4 °C 1025.6 hPa East 4.8 km/h 9.7 km/h 80 % 0.0 mm
20:02 -3.5 °C -6.4 °C 1025.6 hPa ESE 1.6 km/h 9.7 km/h 80 % 0.0 mm
20:12 -3.6 °C -6.5 °C 1025.6 hPa Calm   6.4 km/h 80 % 0.0 mm
20:17 -3.6 °C -6.5 °C 1026.0 hPa ESE 1.6 km/h 4.8 km/h 80 % 0.0 mm
20:22 -3.6 °C -6.5 °C 1026.0 hPa East 3.2 km/h 6.4 km/h 80 % 0.0 mm
20:27 -3.6 °C -6.5 °C 1026.0 hPa East 3.2 km/h 6.4 km/h 80 % 0.0 mm
20:32 -3.6 °C -6.5 °C 1026.0 hPa East 1.6 km/h 6.4 km/h 80 % 0.0 mm
20:37 -3.5 °C -6.4 °C 1026.0 hPa East 4.8 km/h 6.4 km/h 80 % 0.0 mm
20:42 -3.5 °C -6.4 °C 1026.0 hPa East 1.6 km/h 9.7 km/h 80 % 0.0 mm
20:47 -3.5 °C -6.4 °C 1026.0 hPa East 1.6 km/h 9.7 km/h 80 % 0.0 mm
20:52 -3.6 °C -6.5 °C 1026.0 hPa East 3.2 km/h 9.7 km/h 80 % 0.0 mm
20:57 -3.6 °C -6.5 °C 1025.6 hPa East 6.4 km/h 8.0 km/h 80 % 0.0 mm
21:02 -3.5 °C -6.4 °C 1025.6 hPa East 1.6 km/h 8.0 km/h 80 % 0.0 mm
21:17 -3.6 °C -6.4 °C 1025.3 hPa ENE 1.6 km/h 6.4 km/h 81 % 0.0 mm
21:22 -3.6 °C -6.4 °C 1025.3 hPa East 3.2 km/h 6.4 km/h 81 % 0.0 mm
21:27 -3.6 °C -6.4 °C 1025.3 hPa East 6.4 km/h 6.4 km/h 81 % 0.0 mm
21:32 -3.6 °C -6.4 °C 1025.3 hPa ESE 1.6 km/h 8.0 km/h 81 % 0.0 mm
21:37 -3.6 °C -6.4 °C 1025.3 hPa ESE 6.4 km/h 8.0 km/h 81 % 0.0 mm
21:42 -3.6 °C -6.4 °C 1025.3 hPa East 3.2 km/h 8.0 km/h 81 % 0.0 mm
21:47 -3.7 °C -6.3 °C 1025.3 hPa East 6.4 km/h 6.4 km/h 82 % 0.0 mm
21:52 -3.7 °C -6.3 °C 1025.3 hPa Calm   6.4 km/h 82 % 0.0 mm
21:57 -3.7 °C -6.3 °C 1025.3 hPa ESE 1.6 km/h 6.4 km/h 82 % 0.0 mm
22:02 -3.7 °C -6.3 °C 1024.9 hPa Calm   6.4 km/h 82 % 0.0 mm
22:07 -3.7 °C -6.2 °C 1024.9 hPa Calm   6.4 km/h 83 % 0.0 mm
22:12 -3.8 °C -6.3 °C 1024.9 hPa SE 1.6 km/h 6.4 km/h 83 % 0.0 mm
22:17 -3.9 °C -6.4 °C 1024.9 hPa ESE 1.6 km/h 3.2 km/h 83 % 0.0 mm
22:22 -3.9 °C -6.4 °C 1024.9 hPa SE 1.6 km/h 3.2 km/h 83 % 0.0 mm
22:27 -4.0 °C -6.5 °C 1024.9 hPa Calm   6.4 km/h 83 % 0.0 mm
22:32 -4.2 °C -6.5 °C 1024.9 hPa Calm   6.4 km/h 84 % 0.0 mm
22:37 -4.3 °C -6.6 °C 1024.9 hPa Calm   6.4 km/h 84 % 0.0 mm
22:42 -4.4 °C -6.7 °C 1024.9 hPa Calm   1.6 km/h 84 % 0.0 mm
22:47 -4.5 °C -6.8 °C 1024.9 hPa Calm   3.2 km/h 84 % 0.0 mm
22:52 -4.6 °C -6.7 °C 1024.9 hPa Calm   3.2 km/h 85 % 0.0 mm
22:57 -4.7 °C -6.8 °C 1024.9 hPa Calm   3.2 km/h 85 % 0.0 mm
23:02 -4.8 °C -6.9 °C 1024.9 hPa Calm   3.2 km/h 85 % 0.0 mm
23:07 -4.9 °C -7.0 °C 1024.9 hPa Calm   1.6 km/h 85 % 0.0 mm
23:12 -4.9 °C -7.0 °C 1024.9 hPa Calm   1.6 km/h 85 % 0.0 mm
23:17 -4.9 °C -7.0 °C 1024.9 hPa Calm   1.6 km/h 85 % 0.0 mm
23:22 -4.9 °C -6.9 °C 1025.3 hPa Calm   1.6 km/h 86 % 0.0 mm
23:27 -4.9 °C -6.9 °C 1025.3 hPa Calm   1.6 km/h 86 % 0.0 mm
23:32 -4.9 °C -6.9 °C 1025.3 hPa Calm   1.6 km/h 86 % 0.0 mm
23:37 -5.1 °C -7.1 °C 1025.3 hPa Calm   1.6 km/h 86 % 0.0 mm
23:42 -5.0 °C -7.0 °C 1025.3 hPa Calm   1.6 km/h 86 % 0.0 mm
23:47 -4.9 °C -6.9 °C 1025.3 hPa East 1.6 km/h 1.6 km/h 86 % 0.0 mm
23:52 -4.9 °C -7.0 °C 1025.3 hPa East 1.6 km/h 3.2 km/h 85 % 0.0 mm
23:57 -4.9 °C -7.0 °C 1024.9 hPa Calm   4.8 km/h 85 % 0.0 mm
Meteo18
Compliments of Weather Underground - 4 mb

Script developed by  Jim McMurry - jmcmurry@mwt.net Adapted for the template by  Wim van der Kuil - Leuven-Template.eu

You find our weather info also at:

European Weather Network

Weather Underground

Equipment we use:

Weather-station
Davis Vue

Weather-program
Meteohub

Weather-server
Raspberry PI 2 B+

Provider
1 and 1

Davis Vue

Meteohub

Raspberry PI 2 B+

1 and 1